Location: Villingen
(48.0639°N, 8.4609°E)
Time: 14:51:14
(UTC+02:00)

ISS - Visible Passes

Search period start: 20 September 2017 00:00
Search period end: 30 September 2017 00:00
Orbit: 401 x 407 km, 51.6° (Epoch: 20 September)

Date Brightness Start Highest point End Pass type
(mag) Time Alt. Az. Time Alt. Az. Time Alt. Az.
20 Sep -2.5 05:48:54 23° SW 05:48:54 23° SW 05:51:28 10° SSE visible
21 Sep -0.9 04:59:40 10° SE 04:59:40 10° SE 04:59:40 10° SE visible
25 Sep -1.6 21:18:24 10° SW 21:19:19 17° SSW 21:19:19 17° SSW visible
26 Sep -2.5 20:26:35 10° SSW 20:29:13 23° SE 20:29:37 22° SE visible
26 Sep -0.7 22:02:08 10° WSW 22:02:18 11° WSW 22:02:18 11° WSW visible
27 Sep -3.4 21:09:44 10° WSW 21:12:24 53° SW 21:12:24 53° SW visible
28 Sep -3.4 20:17:31 10° SW 20:20:38 44° SSE 20:22:21 22° E visible
28 Sep -1.1 21:53:53 10° W 21:55:00 19° W 21:55:00 19° W visible
29 Sep -3.7 21:01:20 10° WSW 21:04:36 70° NNW 21:04:48 67° NNE visible
